Hourly Weather Jumri Tilaiya

Today, 4 December, Friday

Time Temperature Precipitation Wind Pressure Humidity
00:00 +16°C° 0 mm 1 mps 726 mmHg 52%
01:00 +16°C° 0 mm 1 mps 726 mmHg 53%
02:00 +16°C° 0 mm 1 mps 726 mmHg 54%
03:00 +15°C° 0 mm 1 mps 725 mmHg 54%
04:00 +15°C° 0 mm 1 mps 725 mmHg 55%
05:00 +15°C° 0 mm 1 mps 725 mmHg 56%
06:00 +14°C° 0 mm 1 mps 726 mmHg 58%
07:00 +16°C° 0 mm 1 mps 726 mmHg 53%
08:00 +19°C° 0 mm 1 mps 727 mmHg 47%
09:00 +21°C° 0 mm 1 mps 727 mmHg 42%
10:00 +23°C° 0 mm 1 mps 727 mmHg 38%
11:00 +25°C° 0 mm 1 mps 727 mmHg 35%
12:00 +27°C° 0 mm 1 mps 727 mmHg 30%
13:00 +27°C° 0 mm 1 mps 726 mmHg 29%
14:00 +27°C° 0 mm 2 mps 726 mmHg 29%
15:00 +27°C° 0 mm 3 mps 725 mmHg 28%
16:00 +25°C° 0 mm 2 mps 725 mmHg 33%
17:00 +23°C° 0 mm 2 mps 725 mmHg 38%
18:00 +20°C° 0 mm 1 mps 725 mmHg 43%
19:00 +20°C° 0 mm 1 mps 725 mmHg 44%
20:00 +19°C° 0 mm 1 mps 726 mmHg 45%
21:00 +19°C° 0 mm 1 mps 726 mmHg 46%
22:00 +18°C° 0 mm 1 mps 726 mmHg 46%
23:00 +18°C° 0 mm 1 mps 726 mmHg 47%

Tomorrow, 5 December, Saturday

Time Temperature Precipitation Wind Pressure Humidity
00:00 +18°C° 0 mm 1 mps 725 mmHg 47%
01:00 +16°C° 0 mm 1 mps 725 mmHg 47%
02:00 +16°C° 0 mm 1 mps 725 mmHg 47%
03:00 +16°C° 0 mm 1 mps 725 mmHg 47%
04:00 +16°C° 0 mm 1 mps 725 mmHg 47%
05:00 +15°C° 0 mm 1 mps 725 mmHg 47%
06:00 +15°C° 0 mm 1 mps 725 mmHg 47%
07:00 +18°C° 0 mm 1 mps 726 mmHg 44%
08:00 +20°C° 0 mm 1 mps 727 mmHg 40%
09:00 +23°C° 0 mm 1 mps 728 mmHg 36%
10:00 +24°C° 0 mm 1 mps 728 mmHg 32%
11:00 +26°C° 0 mm 1 mps 728 mmHg 29%
12:00 +28°C° 0 mm 1 mps 727 mmHg 25%
13:00 +28°C° 0 mm 2 mps 727 mmHg 24%
14:00 +28°C° 0 mm 2 mps 726 mmHg 24%
15:00 +28°C° 0 mm 3 mps 726 mmHg 23%
16:00 +26°C° 0 mm 2 mps 726 mmHg 27%
17:00 +23°C° 0 mm 1 mps 725 mmHg 32%
18:00 +21°C° 0 mm 1 mps 725 mmHg 36%
19:00 +20°C° 0 mm 1 mps 726 mmHg 37%
20:00 +20°C° 0 mm 1 mps 726 mmHg 38%
21:00 +19°C° 0 mm 1 mps 727 mmHg 39%
22:00 +19°C° 0 mm 1 mps 727 mmHg 39%
23:00 +18°C° 0 mm 1 mps 727 mmHg 40%

Day after tomorrow, 6 December, Sunday

Time Temperature Precipitation Wind Pressure Humidity
00:00 +18°C° 0 mm 1 mps 727 mmHg 41%
01:00 +18°C° 0 mm 1 mps 727 mmHg 41%
02:00 +18°C° 0 mm 1 mps 726 mmHg 42%
03:00 +16°C° 0 mm 1 mps 726 mmHg 42%
04:00 +16°C° 0 mm 1 mps 726 mmHg 43%
05:00 +16°C° 0 mm 1 mps 727 mmHg 43%
06:00 +16°C° 0 mm 1 mps 727 mmHg 44%
07:00 +19°C° 0 mm 1 mps 728 mmHg 40%
08:00 +19°C° 0 mm 0 mps 729 mmHg 37%
09:00 +21°C° 0 mm 0 mps 729 mmHg 34%
10:00 +23°C° 0 mm 0 mps 729 mmHg 31%
11:00 +27°C° 0 mm 1 mps 729 mmHg 27%
12:00 +28°C° 0 mm 1 mps 729 mmHg 24%
13:00 +28°C° 0 mm 2 mps 728 mmHg 24%
14:00 +28°C° 0 mm 2 mps 728 mmHg 24%
15:00 +29°C° 0 mm 3 mps 727 mmHg 24%
16:00 +26°C° 0 mm 2 mps 727 mmHg 28%
17:00 +24°C° 0 mm 2 mps 727 mmHg 32%
18:00 +22°C° 0 mm 1 mps 727 mmHg 37%
19:00 +21°C° 0 mm 1 mps 727 mmHg 38%
20:00 +20°C° 0 mm 1 mps 727 mmHg 39%
21:00 +20°C° 0 mm 1 mps 727 mmHg 40%
22:00 +19°C° 0 mm 1 mps 727 mmHg 41%
23:00 +19°C° 0 mm 1 mps 727 mmHg 42%

7 December, Monday

Time Temperature Precipitation Wind Pressure Humidity
00:00 +19°C° 0 mm 1 mps 727 mmHg 43%
01:00 +18°C° 0 mm 1 mps 727 mmHg 44%
02:00 +18°C° 0 mm 1 mps 727 mmHg 45%
03:00 +18°C° 0 mm 1 mps 727 mmHg 46%
04:00 +16°C° 0 mm 1 mps 727 mmHg 47%
05:00 +16°C° 0 mm 1 mps 727 mmHg 48%
06:00 +16°C° 0 mm 1 mps 727 mmHg 49%
07:00 +19°C° 0 mm 1 mps 728 mmHg 45%
08:00 +21°C° 0 mm 1 mps 729 mmHg 41%
09:00 +23°C° 0 mm 1 mps 730 mmHg 37%
10:00 +25°C° 0 mm 1 mps 729 mmHg 33%
11:00 +27°C° 0 mm 1 mps 729 mmHg 29%
12:00 +28°C° 0 mm 2 mps 729 mmHg 26%
13:00 +28°C° 0 mm 2 mps 729 mmHg 25%
14:00 +29°C° 0 mm 3 mps 728 mmHg 25%
15:00 +29°C° 0 mm 3 mps 727 mmHg 25%
16:00 +26°C° 0 mm 2 mps 727 mmHg 29%
17:00 +24°C° 0 mm 1 mps 727 mmHg 34%
18:00 +22°C° 0 mm 1 mps 727 mmHg 38%
19:00 +21°C° 0 mm 1 mps 728 mmHg 40%
20:00 +20°C° 0 mm 1 mps 728 mmHg 41%
21:00 +18°C° 0 mm 0 mps 729 mmHg 43%
22:00 +20°C° 0 mm 1 mps 729 mmHg 43%
23:00 +19°C° 0 mm 1 mps 729 mmHg 44%

8 December, Tuesday

Time Temperature Precipitation Wind Pressure Humidity
00:00 +19°C° 0 mm 1 mps 729 mmHg 45%
01:00 +19°C° 0 mm 1 mps 728 mmHg 45%
02:00 +18°C° 0 mm 1 mps 728 mmHg 46%
03:00 +18°C° 0 mm 1 mps 728 mmHg 47%
04:00 +18°C° 0 mm 1 mps 728 mmHg 48%
05:00 +16°C° 0 mm 1 mps 728 mmHg 49%
06:00 +16°C° 0 mm 1 mps 728 mmHg 50%
07:00 +19°C° 0 mm 1 mps 729 mmHg 46%
08:00 +21°C° 0 mm 1 mps 729 mmHg 43%
09:00 +21°C° 0 mm 0 mps 730 mmHg 40%
10:00 +24°C° 0 mm 1 mps 730 mmHg 37%
11:00 +26°C° 0 mm 2 mps 729 mmHg 34%
12:00 +27°C° 0 mm 2 mps 729 mmHg 31%
13:00 +27°C° 0 mm 3 mps 728 mmHg 30%
14:00 +28°C° 0 mm 3 mps 728 mmHg 30%
15:00 +28°C° 0 mm 3 mps 727 mmHg 29%
16:00 +26°C° 0 mm 3 mps 727 mmHg 33%
17:00 +24°C° 0 mm 2 mps 727 mmHg 37%
18:00 +21°C° 0 mm 1 mps 727 mmHg 42%
19:00 +21°C° 0 mm 1 mps 727 mmHg 43%
20:00 +20°C° 0 mm 1 mps 727 mmHg 44%
21:00 +19°C° 0 mm 1 mps 728 mmHg 45%
22:00 +19°C° 0 mm 1 mps 728 mmHg 45%
23:00 +18°C° 0 mm 1 mps 727 mmHg 46%

9 December, Wednesday

Time Temperature Precipitation Wind Pressure Humidity
00:00 +18°C° 0 mm 1 mps 727 mmHg 46%
01:00 +18°C° 0 mm 1 mps 727 mmHg 47%
02:00 +16°C° 0 mm 1 mps 727 mmHg 48%
03:00 +16°C° 0 mm 1 mps 726 mmHg 48%
04:00 +16°C° 0 mm 1 mps 726 mmHg 49%
05:00 +15°C° 0 mm 1 mps 727 mmHg 50%
06:00 +15°C° 0 mm 1 mps 727 mmHg 51%
07:00 +18°C° 0 mm 1 mps 727 mmHg 47%
08:00 +20°C° 0 mm 1 mps 728 mmHg 43%
09:00 +22°C° 0 mm 1 mps 729 mmHg 39%
10:00 +24°C° 0 mm 2 mps 728 mmHg 35%
11:00 +25°C° 0 mm 2 mps 728 mmHg 32%
12:00 +27°C° 0 mm 3 mps 728 mmHg 28%
13:00 +27°C° 0 mm 3 mps 727 mmHg 28%
14:00 +27°C° 0 mm 3 mps 726 mmHg 27%
15:00 +28°C° 0 mm 4 mps 726 mmHg 27%
16:00 +25°C° 0 mm 3 mps 725 mmHg 31%
17:00 +23°C° 0 mm 2 mps 725 mmHg 36%
18:00 +21°C° 0 mm 1 mps 725 mmHg 40%
19:00 +20°C° 0 mm 1 mps 725 mmHg 42%
20:00 +20°C° 0 mm 1 mps 726 mmHg 44%
21:00 +19°C° 0 mm 1 mps 726 mmHg 45%
22:00 +19°C° 0 mm 1 mps 726 mmHg 46%
23:00 +18°C° 0 mm 1 mps 726 mmHg 47%
Show more